This is the latest recevied weather packets stored in our database for station/object N5CSU. If no packets are shown the sender has not sent any weather packets the latest 10 day(s).
| Time | Temp. | Humidity | Pressure | Rain* | Wind** | Luminosity | Snow |
|---|---|---|---|---|---|---|---|
| 1777462791 | 17.22° C | 76% | 1013.9 hPa | 0 mm | - | 0 W/m² | - |
| 1777462486 | 17.22° C | 75% | 1013.8 hPa | 0 mm | - | 0 W/m² | - |
| 1777462184 | 17.78° C | 76% | 1013.5 hPa | 0 mm | - | 0 W/m² | - |
| 1777461880 | 17.78° C | 76% | 1013.9 hPa | 0 mm | - | 0 W/m² | - |
| 1777461577 | 17.78° C | 77% | 1013.7 hPa | 0 mm | - | 0 W/m² | - |
| 1777461272 | 17.78° C | 80% | 1013.9 hPa | 0 mm | - | 0 W/m² | - |
| 1777460967 | 17.78° C | 77% | 1013.7 hPa | 0 mm | - | 0 W/m² | - |
| 1777460657 | 17.78° C | 78% | 1013.8 hPa | 0 mm | - | 0 W/m² | - |
| 1777460353 | 17.78° C | 80% | 1014 hPa | 0 mm | - | 0 W/m² | - |
| 1777460050 | 17.78° C | 80% | 1013.6 hPa | 0 mm | - | 0 W/m² | - |
| 1777459747 | 17.78° C | 79% | 1013.8 hPa | 0 mm | - | 0 W/m² | - |
| 1777459444 | 17.78° C | 82% | 1013.9 hPa | 0 mm | - | 0 W/m² | - |
| 1777459141 | 17.78° C | 82% | 1013.5 hPa | 0 mm | - | 0 W/m² | - |
| 1777458837 | 17.78° C | 80% | 1013.2 hPa | 0 mm | - | 0 W/m² | - |
| 1777458534 | 18.33° C | 80% | 1013.4 hPa | 0 mm | - | 0 W/m² | - |
| 1777458231 | 18.33° C | 82% | 1013.6 hPa | 0 mm | - | 0 W/m² | - |
| 1777457925 | 18.33° C | 83% | 1013.6 hPa | 0 mm | - | 0 W/m² | - |
| 1777457623 | 18.89° C | 86% | 1013.5 hPa | 0 mm | - | 0 W/m² | - |
| 1777457317 | 18.89° C | 83% | 1013.6 hPa | 0 mm | - | 0 W/m² | - |
| 1777457013 | 18.33° C | 84% | 1013.4 hPa | 0 mm | - | 0 W/m² | - |
| 1777456709 | 18.33° C | 85% | 1013.5 hPa | 0 mm | - | 0 W/m² | - |
| 1777456402 | 18.89° C | 87% | 1013.3 hPa | 0 mm | - | 0 W/m² | - |
| 1777456100 | 18.89° C | 85% | 1013.3 hPa | 0 mm | - | 0 W/m² | - |
| 1777455796 | 18.89° C | 83% | 1013.5 hPa | 0 mm | - | 0 W/m² | - |
| 1777455492 | 18.89° C | 82% | 1013.5 hPa | 0 mm | - | 0 W/m² | - |
* Rain latest hour (hover to see other rain measurements)
** Current wind speed in m/s (hover to see current wind gust speed)